Location: Sumter
(33.9203°N, 80.3401°W)
Time: 22:59:13
(UTC+00:00)

ISS - Pass Details

Date: 25 August 2022
Orbit: 414 x 417 km, 51.6° (Epoch: 24 September)

Event Time Altitude Azimuth Distance (km) Brightness Sun altitude
Exits shadow 08:51:02 44° 47° (NE) 590 -2.6 -23.6°
Drops below altitude 10° 08:53:26 10° 47° (NE) 1,497 0.1 -23.1°
Sets 08:55:32 0° 47° (NE) 2,362 1.4 -22.8°
